| time (UTC) | temp F | wind direction | speed MPH | gust MPH | rain 1hr in | rain 24hr in | rain mn in | humidity % | barometer mb |
| 20260905231511 | 96 | 290 | 1.0 | 2.0 | 0.00 | 0.00 | 0.00 | 39 | 1012.3 |
| 20260905230008 | 97 | 62 | 1.0 | 5.0 | 0.00 | 0.00 | 0.00 | 37 | 1012.0 |
| 20260905224507 | 99 | 321 | 1.0 | 5.0 | 0.00 | 0.00 | 0.00 | 38 | 1012.0 |
| 20260905223004 | 99 | 341 | 2.0 | 4.0 | 0.00 | 0.00 | 0.00 | 35 | 1012.0 |
| 20260905221514 | 98 | 254 | 0.0 | 3.0 | 0.00 | 0.00 | 0.00 | 35 | 1012.1 |
| 20260905220027 | 99 | 339 | 0.0 | 3.0 | 0.00 | 0.00 | 0.00 | 37 | 1012.2 |
| 20260905214504 | 99 | 302 | 1.0 | 3.0 | 0.00 | 0.00 | 0.00 | 38 | 1012.3 |
| 20260905213008 | 99 | 360 | 0.0 | 3.0 | 0.00 | 0.00 | 0.00 | 36 | 1012.5 |
| 20260905211508 | 99 | 44 | 1.0 | 6.0 | 0.00 | 0.00 | 0.00 | 37 | 1012.6 |
| 20260905210005 | 100 | 216 | 0.0 | 5.0 | 0.00 | 0.00 | 0.00 | 36 | 1012.8 |
| 20260905204527 | 100 | 350 | 1.0 | 4.0 | 0.00 | 0.00 | 0.00 | 34 | 1013.1 |
| 20260905203007 | 100 | 286 | 1.0 | 3.0 | 0.00 | 0.00 | 0.00 | 36 | 1013.4 |
| 20260905201512 | 99 | 11 | 0.0 | 5.0 | 0.00 | 0.00 | 0.00 | 35 | 1013.5 |
| 20260905200014 | 99 | 337 | 3.0 | 7.0 | 0.00 | 0.00 | 0.00 | 35 | 1013.7 |
| 20260905194509 | 99 | 329 | 1.0 | 6.0 | 0.00 | 0.00 | 0.00 | 36 | 1013.9 |
| 20260905193013 | 100 | 240 | 1.0 | 3.0 | 0.00 | 0.00 | 0.00 | 36 | 1014.1 |
| 20260905191507 | 99 | 180 | 2.0 | 5.0 | 0.00 | 0.00 | 0.00 | 37 | 1014.3 |
| 20260905190012 | 99 | 317 | 0.0 | 6.0 | 0.00 | 0.00 | 0.00 | 37 | 1014.6 |
| 20260905184515 | 98 | 345 | 1.0 | 4.0 | 0.00 | 0.00 | 0.00 | 40 | 1014.8 |
| 20260905183010 | 98 | 323 | 1.0 | 3.0 | 0.00 | 0.00 | 0.00 | 39 | 1015.2 |
| 20260905181511 | 95 | 80 | 1.0 | 3.0 | 0.00 | 0.00 | 0.00 | 42 | 1015.4 |
| 20260905180011 | 97 | 281 | 1.0 | 5.0 | 0.00 | 0.00 | 0.00 | 42 | 1015.6 |
| 20260905174528 | 94 | 178 | 1.0 | 2.0 | 0.00 | 0.00 | 0.00 | 46 | 1015.8 |
| 20260905173014 | 94 | 22 | 0.0 | 3.0 | 0.00 | 0.00 | 0.00 | 44 | 1016.0 |
| 20260905171514 | 95 | 24 | 1.0 | 8.0 | 0.00 | 0.00 | 0.00 | 45 | 1016.0 |
| 20260905170012 | 96 | 343 | 1.0 | 4.0 | 0.00 | 0.00 | 0.00 | 45 | 1016.0 |
| 20260905164518 | 96 | 136 | 1.0 | 4.0 | 0.00 | 0.00 | 0.00 | 45 | 1016.2 |
| 20260905163014 | 94 | 173 | 1.0 | 7.0 | 0.00 | 0.00 | 0.00 | 45 | 1016.3 |
| 20260905161523 | 93 | 323 | 1.0 | 5.0 | 0.00 | 0.00 | 0.00 | 47 | 1016.4 |
| 20260905160039 | 92 | 142 | 2.0 | 5.0 | 0.00 | 0.00 | 0.00 | 49 | 1016.3 |
| 20260905154515 | 91 | 249 | 1.0 | 2.0 | 0.00 | 0.00 | 0.00 | 50 | 1016.4 |
| 20260905153024 | 90 | 338 | 1.0 | 6.0 | 0.00 | 0.00 | 0.00 | 53 | 1016.2 |
| 20260905151521 | 90 | 155 | 2.0 | 5.0 | 0.00 | 0.00 | 0.00 | 54 | 1016.2 |
| 20260905150016 | 87 | 65 | 1.0 | 4.0 | 0.00 | 0.00 | 0.00 | 61 | 1016.1 |
| 20260905144536 | 85 | 187 | 0.0 | 5.0 | 0.00 | 0.00 | 0.00 | 64 | 1015.9 |
| 20260905143018 | 83 | 170 | 1.0 | 4.0 | 0.00 | 0.00 | 0.00 | 68 | 1016.0 |
| 20260905141505 | 79 | 157 | 0.0 | 1.0 | 0.00 | 0.00 | 0.00 | 76 | 1016.1 |
| 20260905140006 | 78 | 172 | 0.0 | 1.0 | 0.00 | 0.00 | 0.00 | 78 | 1016.2 |
| 20260905134512 | 76 | 174 | 0.0 | 1.0 | 0.00 | 0.00 | 0.00 | 80 | 1016.2 |
| 20260905133009 | 75 | 204 | 0.0 | 2.0 | 0.00 | 0.00 | 0.00 | 83 | 1016.2 |
| 20260905131509 | 73 | 207 | 0.0 | 1.0 | 0.00 | 0.00 | 0.00 | 84 | 1016.1 |
| 20260905130008 | 72 | 211 | 0.0 | 1.0 | 0.00 | 0.00 | 0.00 | 87 | 1016.1 |
| 20260905124509 | 71 | 211 | 0.0 | 1.0 | 0.00 | 0.00 | 0.00 | 89 | 1016.0 |
| 20260905123012 | 70 | 211 | 0.0 | 1.0 | 0.00 | 0.00 | 0.00 | 90 | 1015.8 |
| 20260905121512 | 71 | 212 | 0.0 | 2.0 | 0.00 | 0.00 | 0.00 | 88 | 1015.7 |
| 20260905120013 | 70 | 321 | 0.0 | 1.0 | 0.00 | 0.00 | 0.00 | 89 | 1015.8 |
| 20260905114516 | 70 | 321 | 0.0 | 1.0 | 0.00 | 0.00 | 0.00 | 89 | 1015.5 |
| 20260905113017 | 70 | 322 | 0.0 | 0.0 | 0.00 | 0.00 | 0.00 | 89 | 1015.4 |
| 20260905111514 | 70 | 322 | 0.0 | 1.0 | 0.00 | 0.00 | 0.00 | 90 | 1015.4 |
| 20260905110020 | 70 | 322 | 0.0 | 0.0 | 0.00 | 0.00 | 0.00 | 90 | 1015.3 |
| 20260905104526 | 70 | 322 | 0.0 | 0.0 | 0.00 | 0.00 | 0.00 | 89 | 1015.3 |
| 20260905103023 | 71 | 323 | 0.0 | 0.0 | 0.00 | 0.00 | 0.00 | 89 | 1015.2 |
| 20260905101518 | 71 | 322 | 0.0 | 0.0 | 0.00 | 0.00 | 0.00 | 89 | 1015.1 |
| 20260905100019 | 71 | 322 | 0.0 | 1.0 | 0.00 | 0.00 | 0.00 | 88 | 1015.0 |
| 20260905094516 | 71 | 323 | 0.0 | 1.0 | 0.00 | 0.00 | 0.00 | 87 | 1015.0 |
| 20260905093013 | 71 | 323 | 0.0 | 1.0 | 0.00 | 0.00 | 0.00 | 88 | 1015.1 |
| 20260905091517 | 71 | 328 | 0.0 | 1.0 | 0.00 | 0.00 | 0.00 | 88 | 1015.0 |
| 20260905090024 | 71 | 328 | 0.0 | 1.0 | 0.00 | 0.00 | 0.00 | 88 | 1015.0 |
| 20260905084527 | 71 | 331 | 0.0 | 1.0 | 0.00 | 0.00 | 0.00 | 87 | 1014.8 |
| 20260905083023 | 71 | 5 | 0.0 | 2.0 | 0.00 | 0.00 | 0.00 | 87 | 1014.8 |
| 20260905081521 | 72 | 12 | 0.0 | 1.0 | 0.00 | 0.00 | 0.00 | 86 | 1014.8 |
| 20260905080021 | 72 | 15 | 0.0 | 1.0 | 0.00 | 0.00 | 0.00 | 86 | 1014.7 |
| 20260905074534 | 72 | 15 | 0.0 | 1.0 | 0.00 | 0.00 | 0.00 | 85 | 1014.8 |
| 20260905073033 | 72 | 15 | 0.0 | 1.0 | 0.00 | 0.00 | 0.00 | 86 | 1014.8 |
| 20260905071531 | 73 | 15 | 0.0 | 0.0 | 0.00 | 0.00 | 0.00 | 86 | 1015.1 |
| 20260905070028 | 73 | 15 | 0.0 | 0.0 | 0.00 | 0.00 | 0.00 | 85 | 1015.3 |
| 20260905064526 | 73 | 15 | 0.0 | 1.0 | 0.00 | 0.00 | 0.00 | 84 | 1015.3 |
| 20260905063006 | 73 | 15 | 0.0 | 0.0 | 0.00 | 0.00 | 0.00 | 83 | 1015.4 |
| 20260905061512 | 73 | 15 | 0.0 | 0.0 | 0.00 | 0.00 | 0.00 | 84 | 1015.4 |
| 20260905060016 | 74 | 15 | 0.0 | 0.0 | 0.00 | 0.00 | 0.00 | 81 | 1015.4 |
| 20260905054508 | 74 | 15 | 0.0 | 0.0 | 0.00 | 0.00 | 0.00 | 80 | 1015.4 |
| 20260905053006 | 74 | 15 | 0.0 | 1.0 | 0.00 | 0.00 | 0.00 | 79 | 1015.4 |
| 20260905051506 | 75 | 15 | 0.0 | 1.0 | 0.00 | 0.00 | 0.00 | 78 | 1015.3 |
| 20260905050019 | 75 | 38 | 0.0 | 1.0 | 0.00 | 0.00 | 0.00 | 80 | 1015.3 |
| 20260905044523 | 75 | 24 | 0.0 | 1.0 | 0.00 | 0.00 | 0.00 | 79 | 1015.3 |
| 20260905043017 | 76 | 19 | 0.0 | 1.0 | 0.00 | 0.00 | 0.00 | 78 | 1015.4 |
| 20260905041509 | 76 | 9 | 0.0 | 1.0 | 0.00 | 0.00 | 0.00 | 77 | 1015.1 |
| 20260905040016 | 77 | 34 | 0.0 | 1.0 | 0.00 | 0.00 | 0.00 | 75 | 1015.1 |
| 20260905034506 | 77 | 342 | 0.0 | 1.0 | 0.00 | 0.00 | 0.00 | 75 | 1015.2 |
| 20260905033038 | 77 | 342 | 0.0 | 1.0 | 0.00 | 0.00 | 0.00 | 75 | 1015.1 |
| 20260905031510 | 78 | 300 | 0.0 | 1.0 | 0.00 | 0.00 | 0.00 | 74 | 1015.1 |
| 20260905030014 | 78 | 284 | 0.0 | 1.0 | 0.00 | 0.00 | 0.00 | 73 | 1014.9 |
| 20260905024508 | 79 | 284 | 0.0 | 1.0 | 0.00 | 0.00 | 0.00 | 72 | 1014.9 |
| 20260905023036 | 79 | 283 | 0.0 | 1.0 | 0.00 | 0.00 | 0.00 | 71 | 1014.5 |
| 20260905021509 | 80 | 283 | 0.0 | 1.0 | 0.00 | 0.00 | 0.00 | 70 | 1014.3 |
| 20260905020019 | 81 | 283 | 0.0 | 1.0 | 0.00 | 0.00 | 0.00 | 68 | 1014.1 |
| 20260905014514 | 82 | 283 | 0.0 | 1.0 | 0.00 | 0.00 | 0.00 | 68 | 1014.0 |
| 20260905013013 | 84 | 282 | 0.0 | 1.0 | 0.00 | 0.00 | 0.00 | 61 | 1013.8 |
| 20260905011516 | 86 | 213 | 0.0 | 1.0 | 0.00 | 0.00 | 0.00 | 54 | 1013.7 |
| 20260905010016 | 87 | 221 | 0.0 | 1.0 | 0.00 | 0.00 | 0.00 | 52 | 1013.6 |
| 20260905004515 | 88 | 238 | 0.0 | 2.0 | 0.00 | 0.00 | 0.00 | 50 | 1013.5 |
| 20260905003018 | 90 | 191 | 0.0 | 2.0 | 0.00 | 0.00 | 0.00 | 50 | 1013.3 |
| 20260905001521 | 92 | 314 | 0.0 | 2.0 | 0.00 | 0.00 | 0.00 | 47 | 1013.3 |
| 20260905000017 | 94 | 321 | 0.0 | 4.0 | 0.00 | 0.00 | 0.00 | 44 | 1013.3 |
| 20260904234519 | 95 | 360 | 1.0 | 6.0 | 0.00 | 0.00 | 0.00 | 44 | 1013.3 |